PAL1803 RPLL-RPMD

Flight info

Callsign PAL1803
Flight time N/A
Altitude 35000
Route IPATA2R IPATA B462 MASBA W9A BN W9 RIMAR RIMAR2R
Aircraft B77W/H-SDE1E2E3FGHIJ2J3J4J5M1RWXY/LB1D1

Departure

Time N/A
Airport Ninoy Aquino International Airport (RPLL)

Arrival

Time 2026-05-07 02:56
Airport Francisco Bangoy International Airport (RPMD)
Time Latitude Longitude Altitude Speed Heading
2026-05-07 02:09 10.29524 124.76358 36881 ft 475 kts 151°
2026-05-07 02:10 10.23711 124.79506 36893 ft 475 kts 151°
2026-05-07 02:10 10.17865 124.82670 36871 ft 476 kts 151°
2026-05-07 02:11 10.12030 124.85826 36901 ft 476 kts 150°
2026-05-07 02:11 10.06177 124.88992 36897 ft 476 kts 151°
2026-05-07 02:12 10.00346 124.92144 36886 ft 477 kts 151°
2026-05-07 02:12 9.94495 124.95305 36902 ft 477 kts 151°
2026-05-07 02:13 9.88626 124.98476 36889 ft 477 kts 150°
2026-05-07 02:13 9.82897 125.01570 36893 ft 477 kts 150°
2026-05-07 02:14 9.77025 125.04739 36894 ft 478 kts 150°
2026-05-07 02:14 9.71127 125.07889 36889 ft 479 kts 151°
2026-05-07 02:15 9.65256 125.11011 36890 ft 479 kts 151°
2026-05-07 02:15 9.59369 125.14148 36899 ft 479 kts 151°
2026-05-07 02:16 9.54442 125.16779 36877 ft 479 kts 151°
2026-05-07 02:16 9.48523 125.19944 36893 ft 479 kts 151°
2026-05-07 02:17 9.42643 125.23088 36891 ft 480 kts 151°
2026-05-07 02:17 9.36728 125.26248 36887 ft 480 kts 150°
2026-05-07 02:18 9.30815 125.29405 36885 ft 480 kts 150°
2026-05-07 02:18 9.24940 125.32541 36887 ft 480 kts 151°
2026-05-07 02:19 9.19008 125.35706 36897 ft 482 kts 151°
2026-05-07 02:19 9.13065 125.38876 36871 ft 477 kts 151°
2026-05-07 02:20 9.10174 125.40417 36658 ft 473 kts 151°
2026-05-07 02:20 9.07269 125.41966 36182 ft 469 kts 151°
2026-05-07 02:20 9.04395 125.43499 35756 ft 465 kts 152°
2026-05-07 02:20 9.01539 125.45021 35302 ft 462 kts 152°
2026-05-07 02:21 8.98725 125.46493 34849 ft 459 kts 155°
2026-05-07 02:21 8.95756 125.47685 34390 ft 457 kts 162°
2026-05-07 02:21 8.92700 125.48537 33914 ft 455 kts 167°
2026-05-07 02:21 8.89569 125.49065 33399 ft 453 kts 174°
2026-05-07 02:22 8.86483 125.49377 32935 ft 449 kts 174°
2026-05-07 02:22 8.83362 125.49660 32469 ft 446 kts 174°
2026-05-07 02:22 8.80266 125.49941 32008 ft 443 kts 174°
2026-05-07 02:22 8.77236 125.50225 31560 ft 441 kts 174°
2026-05-07 02:23 8.74184 125.50522 31112 ft 438 kts 174°
2026-05-07 02:23 8.71152 125.50824 30662 ft 436 kts 173°
2026-05-07 02:23 8.68139 125.51129 30198 ft 434 kts 173°
2026-05-07 02:23 8.65135 125.51433 29714 ft 432 kts 173°
2026-05-07 02:24 8.62180 125.51732 29223 ft 429 kts 173°
2026-05-07 02:24 8.59206 125.52033 28747 ft 426 kts 173°
2026-05-07 02:24 8.56259 125.52330 28297 ft 424 kts 173°
2026-05-07 02:24 8.53338 125.52625 27839 ft 421 kts 173°
2026-05-07 02:25 8.50423 125.52909 27388 ft 418 kts 173°
2026-05-07 02:25 8.47563 125.53169 26954 ft 416 kts 173°
2026-05-07 02:25 8.44679 125.53423 26522 ft 414 kts 173°
2026-05-07 02:25 8.41816 125.53675 26067 ft 412 kts 173°
2026-05-07 02:26 8.38959 125.53928 25635 ft 410 kts 173°
2026-05-07 02:26 8.36114 125.54181 25182 ft 409 kts 173°
2026-05-07 02:26 8.33274 125.54434 24737 ft 408 kts 173°
2026-05-07 02:26 8.30488 125.54684 24304 ft 407 kts 172°
2026-05-07 02:27 8.27657 125.54939 23859 ft 406 kts 172°
2026-05-07 02:27 8.24834 125.55192 23421 ft 405 kts 172°
2026-05-07 02:27 8.22029 125.55444 22885 ft 404 kts 172°
2026-05-07 02:27 8.19230 125.55695 22433 ft 402 kts 172°
2026-05-07 02:28 8.16485 125.55942 21994 ft 399 kts 172°
2026-05-07 02:28 8.13723 125.56190 21558 ft 397 kts 172°
2026-05-07 02:28 8.10966 125.56438 21118 ft 395 kts 172°
2026-05-07 02:28 8.08225 125.56684 20677 ft 394 kts 172°
2026-05-07 02:29 8.05498 125.56929 20252 ft 392 kts 172°
2026-05-07 02:29 8.02810 125.57170 19817 ft 391 kts 173°
2026-05-07 02:29 8.00106 125.57412 19394 ft 390 kts 173°
2026-05-07 02:29 7.97394 125.57620 18926 ft 388 kts 178°
2026-05-07 02:30 7.94738 125.57234 18498 ft 384 kts 194°
2026-05-07 02:30 7.92201 125.56448 18074 ft 384 kts 195°
2026-05-07 02:30 7.89642 125.55646 17580 ft 384 kts 195°
2026-05-07 02:30 7.87090 125.54860 17138 ft 383 kts 195°
2026-05-07 02:31 7.84543 125.54091 16704 ft 381 kts 195°
2026-05-07 02:31 7.82028 125.53344 16264 ft 380 kts 195°
2026-05-07 02:31 7.79492 125.52596 15846 ft 378 kts 195°
2026-05-07 02:31 7.76970 125.51856 15415 ft 372 kts 195°
2026-05-07 02:32 7.74549 125.51144 14975 ft 352 kts 195°
2026-05-07 02:32 7.72242 125.50467 14599 ft 343 kts 195°
2026-05-07 02:32 7.69946 125.49795 14220 ft 345 kts 195°
2026-05-07 02:32 7.67660 125.49126 13816 ft 338 kts 195°
2026-05-07 02:33 7.65422 125.48469 13388 ft 331 kts 195°
2026-05-07 02:33 7.63249 125.47833 13006 ft 325 kts 195°
2026-05-07 02:33 7.61083 125.47198 12633 ft 325 kts 195°
2026-05-07 02:33 7.58896 125.46558 12256 ft 327 kts 195°
2026-05-07 02:34 7.56694 125.45914 11875 ft 330 kts 195°
2026-05-07 02:34 7.54509 125.45274 11562 ft 330 kts 195°
2026-05-07 02:34 7.52295 125.44624 11225 ft 332 kts 195°
2026-05-07 02:34 7.50062 125.43971 10838 ft 335 kts 195°
2026-05-07 02:35 7.47809 125.43311 10458 ft 339 kts 195°
2026-05-07 02:35 7.45555 125.42651 10275 ft 334 kts 195°
2026-05-07 02:35 7.43335 125.42002 10121 ft 329 kts 195°
2026-05-07 02:35 7.41148 125.41362 9912 ft 326 kts 195°
2026-05-07 02:36 7.39006 125.40733 9718 ft 322 kts 195°
2026-05-07 02:36 7.36879 125.40112 9542 ft 314 kts 195°
2026-05-07 02:36 7.34807 125.39539 9359 ft 302 kts 189°
2026-05-07 02:36 7.32761 125.39556 9047 ft 289 kts 166°
2026-05-07 02:37 7.30829 125.39991 8454 ft 282 kts 165°
2026-05-07 02:37 7.28932 125.40421 7820 ft 281 kts 166°
2026-05-07 02:37 7.27028 125.40839 7191 ft 278 kts 166°
2026-05-07 02:37 7.25177 125.41234 6852 ft 264 kts 167°
2026-05-07 02:38 7.23416 125.41608 6532 ft 259 kts 166°
2026-05-07 02:38 7.21604 125.41998 6272 ft 273 kts 166°
2026-05-07 02:38 7.19746 125.42395 5911 ft 271 kts 167°
2026-05-07 02:38 7.17912 125.42780 5590 ft 269 kts 167°
2026-05-07 02:39 7.16089 125.43165 5295 ft 271 kts 167°
2026-05-07 02:39 7.14236 125.43555 4963 ft 272 kts 167°
2026-05-07 02:39 7.12375 125.43948 4664 ft 273 kts 167°
2026-05-07 02:39 7.10504 125.44344 4333 ft 275 kts 167°
2026-05-07 02:40 7.08652 125.44734 4139 ft 265 kts 166°
2026-05-07 02:40 7.07051 125.45435 3927 ft 241 kts 137°
2026-05-07 02:40 7.06025 125.46635 3696 ft 219 kts 120°
2026-05-07 02:40 7.05286 125.47940 3480 ft 212 kts 116°
2026-05-07 02:41 7.04600 125.49232 3295 ft 206 kts 116°
2026-05-07 02:41 7.03939 125.50469 3108 ft 195 kts 116°
2026-05-07 02:41 7.03314 125.51653 2889 ft 186 kts 110°
2026-05-07 02:41 7.03181 125.52847 2668 ft 172 kts 68°
2026-05-07 02:42 7.03731 125.53925 2535 ft 178 kts 54°
2026-05-07 02:42 7.04420 125.54962 2334 ft 172 kts 52°
2026-05-07 02:42 7.05098 125.55881 2236 ft 157 kts 47°
2026-05-07 02:42 7.05789 125.56698 2202 ft 151 kts 46°
2026-05-07 02:43 7.06477 125.57498 2166 ft 152 kts 46°
2026-05-07 02:43 7.07182 125.58319 1963 ft 153 kts 46°
2026-05-07 02:43 7.07856 125.59104 1811 ft 150 kts 47°
2026-05-07 02:43 7.08547 125.59910 1574 ft 152 kts 46°
2026-05-07 02:44 7.09241 125.60718 1306 ft 152 kts 47°
2026-05-07 02:44 7.09893 125.61513 1217 ft 143 kts 50°
2026-05-07 02:44 7.10500 125.62319 1812 ft 147 kts 49°
2026-05-07 02:44 7.11229 125.63188 1848 ft 175 kts 45°
2026-05-07 02:45 7.12072 125.64143 1820 ft 199 kts 47°
2026-05-07 02:45 7.13055 125.65275 1799 ft 227 kts 39°
2026-05-07 02:45 7.14461 125.66015 1734 ft 236 kts 18°
2026-05-07 02:45 7.16043 125.66532 1956 ft 243 kts 17°
2026-05-07 02:46 7.17693 125.67053 2102 ft 248 kts 13°
2026-05-07 02:46 7.19406 125.67109 2341 ft 249 kts 346°
2026-05-07 02:46 7.21048 125.66516 2619 ft 253 kts 338°
2026-05-07 02:46 7.22645 125.65752 2845 ft 255 kts 330°
2026-05-07 02:47 7.23930 125.64514 3065 ft 265 kts 302°
2026-05-07 02:47 7.24502 125.62739 3325 ft 272 kts 276°
2026-05-07 02:47 7.24189 125.60858 3530 ft 276 kts 247°
2026-05-07 02:47 7.23128 125.59244 3776 ft 276 kts 231°
2026-05-07 02:48 7.21873 125.57784 3927 ft 284 kts 230°
2026-05-07 02:48 7.20535 125.56292 3981 ft 286 kts 229°
2026-05-07 02:48 7.19195 125.54817 3988 ft 284 kts 229°
2026-05-07 02:48 7.17866 125.53357 3998 ft 280 kts 229°
2026-05-07 02:49 7.16567 125.51926 3997 ft 281 kts 229°
2026-05-07 02:49 7.15244 125.50470 4010 ft 283 kts 229°
2026-05-07 02:49 7.13911 125.49002 3998 ft 283 kts 228°
2026-05-07 02:49 7.12584 125.47544 4000 ft 280 kts 229°
2026-05-07 02:50 7.11265 125.46106 3999 ft 277 kts 228°
2026-05-07 02:50 7.09982 125.44707 3944 ft 268 kts 229°
2026-05-07 02:50 7.08727 125.43335 3740 ft 264 kts 227°
2026-05-07 02:50 7.07256 125.42332 3693 ft 259 kts 194°
2026-05-07 02:51 7.05451 125.42372 3713 ft 269 kts 158°
2026-05-07 02:51 7.03966 125.43472 3733 ft 264 kts 122°
2026-05-07 02:51 7.03355 125.45125 3725 ft 250 kts 97°
2026-05-07 02:51 7.03066 125.46775 3661 ft 226 kts 97°
2026-05-07 02:52 7.02901 125.48287 3630 ft 210 kts 91°
2026-05-07 02:52 7.02800 125.49748 3395 ft 209 kts 92°
2026-05-07 02:52 7.02703 125.51180 3151 ft 205 kts 91°
2026-05-07 02:52 7.02780 125.52555 2894 ft 186 kts 64°
2026-05-07 02:53 7.03412 125.53615 2684 ft 174 kts 52°
2026-05-07 02:53 7.04096 125.54611 2435 ft 175 kts 52°
2026-05-07 02:53 7.04825 125.55568 2270 ft 170 kts 47°
2026-05-07 02:53 7.05599 125.56478 2285 ft 174 kts 46°
2026-05-07 02:54 7.06411 125.57412 2158 ft 179 kts 45°
2026-05-07 02:54 7.07222 125.58320 1737 ft 171 kts 46°
2026-05-07 02:54 7.07983 125.59210 1300 ft 161 kts 49°
2026-05-07 02:54 7.08646 125.60043 997 ft 146 kts 49°
2026-05-07 02:55 7.09304 125.60824 793 ft 147 kts 47°
2026-05-07 02:55 7.09981 125.61596 623 ft 145 kts 47°
2026-05-07 02:55 7.10659 125.62372 428 ft 151 kts 47°
2026-05-07 02:55 7.11333 125.63157 238 ft 147 kts 47°
2026-05-07 02:56 7.11992 125.63921 112 ft 141 kts 47°
2026-05-07 02:56 7.12568 125.64591 107 ft 106 kts 49°
2026-05-07 02:56 7.12949 125.65033 106 ft 57 kts 49°
2026-05-07 02:56 7.13067 125.65171 107 ft 20 kts 50°
2026-05-07 02:57 7.13158 125.65278 106 ft 20 kts 47°
2026-05-07 02:57 7.13251 125.65384 106 ft 20 kts 49°
2026-05-07 02:57 7.13327 125.65472 105 ft 11 kts 49°
2026-05-07 02:57 7.13394 125.65505 105 ft 11 kts
2026-05-07 02:58 7.13449 125.65549 107 ft 11 kts 76°
2026-05-07 02:58 7.13403 125.65573 107 ft 9 kts 224°
2026-05-07 02:58 7.13365 125.65519 106 ft 11 kts 232°
2026-05-07 02:58 7.13305 125.65449 106 ft 14 kts 229°
2026-05-07 02:59 7.13241 125.65375 108 ft 14 kts 229°
2026-05-07 02:59 7.13174 125.65295 105 ft 17 kts 229°
2026-05-07 02:59 7.13094 125.65204 107 ft 18 kts 229°
2026-05-07 02:59 7.13012 125.65108 107 ft 18 kts 229°
2026-05-07 03:00 7.12931 125.65011 106 ft 18 kts 228°
2026-05-07 03:00 7.12885 125.64958 106 ft 9 kts 238°
2026-05-07 03:00 7.12900 125.64903 107 ft 9 kts 309°
2026-05-07 03:00 7.12948 125.64859 106 ft 10 kts 317°
2026-05-07 03:01 7.13000 125.64814 106 ft 9 kts 318°
2026-05-07 03:01 7.13009 125.64776 106 ft 9 kts 261°
2026-05-07 03:01 7.12975 125.64723 106 ft 9 kts 230°
2026-05-07 03:01 7.12931 125.64671 106 ft 10 kts 229°
2026-05-07 03:02 7.12899 125.64633 106 ft 7 kts 229°
2026-05-07 03:02 7.12904 125.64592 107 ft 7 kts 307°
2026-05-07 03:02 7.12932 125.64564 106 ft 2 kts 318°
2026-05-07 03:02 7.12944 125.64553 106 ft 1 kts 319°
2026-05-07 03:03 7.12945 125.64552 106 ft 0 kts 320°